Regional Weather Roundup
Issued by NWS Green Bay, WI

Home | Current Version | Previous Version | Graphics & Text | Print | Product List | Glossary Off
Versions: 1 2 3 4 5 6 7 8 9 10 11 12 13 14 15 16 17 18 19 20 21 22 23 24 25 26 27 28 29 30 31 32 33 34 35 36 37 38 39 40 41 42 43 44 45 46 47 48 49 50

000
ASUS43 KGRB 011900
RWRGRB

NORTH-CENTRAL AND NORTHEAST WISCONSIN REGIONAL WEATHER ROUNDUP
NATIONAL WEATHER SERVICE GREEN BAY WI
200 PM CDT TUE SEP 01 2015

WIZ005-009-010>012-018-019-012000-
NORTH CENTRAL WISCONSIN

CITY           SKY/WX    TMP DP  RH WIND       PRES   REMARKS
IRONWOOD       PTSUNNY   81  72  74 S8        29.89R
MANITOWISH WTR NOT AVBL
ARBOR VITAE    NOT AVBL
EAGLE RIVER    NOT AVBL
LAND O LAKES   NOT AVBL
RHINELANDER    MOSUNNY   81  66  60 SW10      29.97F
PHILLIPS       PTSUNNY   80  69  68 SW8       29.95S
ANTIGO         NOT AVBL
TOMAHAWK       NOT AVBL
MERRILL        MOSUNNY   84  71  64 SW12      29.96S
$$

WIZ013-073-012000-
NORTHEAST WISCONSIN

CITY           SKY/WX    TMP DP  RH WIND       PRES   REMARKS
IRON MOUNTAIN  MOSUNNY   86  65  49 SW10      29.93S
MARINETTE      MOSUNNY   84  72  65 S8        29.93S
$$

WIZ017-030-035>037-045-012000-
CENTRAL WISCONSIN

CITY           SKY/WX    TMP DP  RH WIND       PRES   REMARKS
MEDFORD        NOT AVBL
WAUSAU         MOSUNNY   84  67  56 S10       29.95S
MOSINEE        NOT AVBL
MARSHFIELD     MOSUNNY   85  66  53 SW9       29.96S
WISC RAPIDS    SUNNY     86  67  52 S12       29.97S
STEVENS POINT  NOT AVBL
WAUPACA        NOT AVBL
SHAWANO        NOT AVBL
CLINTONVILLE   MOSUNNY   86  68  54 SW10      29.95R
WAUTOMA        NOT AVBL
$$

WIZ038-039-048-051-012000-
FOX VALLEY

CITY           SKY/WX    TMP DP  RH WIND       PRES   REMARKS
NWS GREEN BAY  PTSUNNY   86  71  60 SW13      29.95F HX  91
APPLETON       NOT AVBL
OSHKOSH        MOSUNNY   86  69  56 VRB7G17   29.97S HX  90
FOND DU LAC    MOSUNNY   86  69  56 SW10      29.98S HX  90
$$

WIZ022-050-052-012000-
EAST CENTRAL WISCONSIN

CITY           SKY/WX    TMP DP  RH WIND       PRES   REMARKS
EPHRAIM        FAIR      80  70  71 S6        29.95S
STURGEON BAY   PTSUNNY   81  72  74 S9        29.98R
MANITOWOC      NOT AVBL
SHEBOYGAN      SUNNY     87  70  56 SW13G21   29.98S HX  92
$$

LMZ563-521-522-541>543-012000-
LAKESHORE

STATION/POSITION TIME  TEMP    WIND        PRES    VSBY  WAVE
                       AIR SEA DIR/SP/G                  HT/PER
                 (UTC) (F)     (DEG/KT/KT) (MB)    (MI)  (FT/S)
SHEBOYGAN LKSHOR 1800   66     170/ 22/ 23 1015.2F
KEWAUNEE LKSHORE 1800   54     170/ 12/ 14 1014.0F
ALGOMA MARINA    1814           CALM  /  3   N/A
NORTHPORT PIER   1800   72     150/  6/ 10 1014.2F
N MID LAKE BUOY  1750   67 65  200/ 10/ 12 1014.5F         1/ 3
S GREEN BAY BUOY 1800   72 66  200/  6/  6 1015.6F
SISTER BAY LKSHO 1819   83     160/ 10/ 12   N/A
CHAMBERS ISLAND  1800   80     190/  4/ 11 1013.9F
MENOMINEE LKSHOR 1800   77     160/  7/  9 1012.7F
$$


USA.gov is the U.S. government's official web portal to all federal, state and local government web resources and services.